Wind_Speed
19 13 22 24 18 16 8 12 10 10 6 8 14 14 12 19 29 28 29 31 33 36 33 30 32 30 31 34 33 31 31 31 31 31 31 30 28 28 25 21 18 17 15 13
8 24 20 15 16 17 18 17 17 10 7 4 6 10 6 15 27 32 32 33 35 31 29 32 33 33 34 38 36 33 31 30 31 32 32 32 29 29 26 21 19 18 17 14
25 7 19 19 17 19 23 24 17 8 2 4 5 14 7 12 18 24 30 32 30 34 36 34 35 37 37 40 39 37 34 32 32 32 32 33 32 31 29 29 25 23 20 17
20 18 24 24 26 22 23 18 17 16 9 11 6 14 7 12 17 18 26 30 34 34 33 34 36 36 40 43 40 39 37 36 34 34 35 36 34 33 31 29 28 26 24 22
17 24 20 26 27 23 20 14 15 15 13 12 13 8 14 5 12 19 25 33 35 37 37 37 39 45 46 44 43 42 39 38 37 36 38 37 36 33 28 26 25 25 26 27
19 9 24 16 20 22 12 13 8 5 9 15 21 14 17 13 16 16 25 31 33 35 38 36 36 36 39 38 41 43 43 41 41 41 40 40 39 36 33 30 27 24 24 26
21 14 15 19 16 20 20 18 7 10 11 15 15 14 20 9 17 19 20 34 37 39 38 38 36 36 40 43 45 46 46 45 43 44 43 42 40 38 36 32 28 27 25 24
19 16 20 19 20 13 28 23 9 14 15 13 7 14 13 17 22 26 23 29 32 32 36 39 41 41 45 47 46 47 46 45 45 45 46 44 42 41 37 35 34 29 28 25
18 19 11 20 14 21 17 24 23 10 1 4 13 14 10 9 20 18 25 23 25 34 38 41 43 47 51 51 50 47 47 46 46 45 45 46 45 43 42 36 31 32 28 28
5 7 12 26 17 24 15 18 11 14 13 12 8 12 13 19 18 21 18 23 28 29 32 36 40 44 50 53 53 52 48 46 46 45 44 45 46 45 42 39 35 32 31 28
2 5 5 16 22 23 10 19 11 11 9 9 8 9 10 16 20 21 22 29 28 29 33 35 40 45 49 49 50 54 53 50 48 48 45 45 47 49 46 44 38 35 31 31
4 2 11 16 13 21 25 18 23 11 13 13 6 8 2 12 11 17 25 28 29 30 32 33 34 37 36 46 49 54 54 53 52 51 48 46 46 46 48 46 42 38 36 33
5 3 11 7 11 9 22 22 23 21 11 18 12 5 8 7 5 11 14 19 18 22 22 26 24 31 39 44 48 51 50 50 50 51 53 52 50 50 49 47 44 42 40 37
4 1 9 13 6 3 5 10 25 25 17 17 21 16 11 5 9 12 17 22 17 18 17 23 27 29 34 40 45 47 48 46 46 48 48 51 51 52 49 45 45 44 43 41
5 1 4 5 7 6 9 10 10 17 22 23 22 24 19 16 14 11 15 13 16 18 14 21 24 25 30 36 41 43 44 47 47 46 47 46 46 48 48 47 46 45 46 44
6 1 2 7 9 10 14 13 14 14 16 16 22 25 8 15 26 28 28 28 20 25 24 24 26 24 25 32 38 40 43 46 47 48 46 44 45 46 45 45 45 45 47 47
4 2 2 6 7 12 15 21 17 14 13 15 22 18 14 17 13 19 27 29 29 24 23 22 22 22 21 22 26 36 40 44 48 48 46 47 46 46 45 46 46 46 48 48
4 4 3 5 2 10 10 4 6 13 17 21 22 19 16 17 24 28 35 32 34 39 38 38 38 37 34 31 30 29 36 41 45 46 46 47 48 47 47 46 46 48 48 50
17 9 4 5 12 16 18 7 3 5 13 7 16 21 19 25 27 26 27 35 46 47 45 42 38 32 33 33 33 34 36 39 40 41 44 44 44 46 47 48 47 48 50 52
14 14 7 5 8 12 2 9 14 5 15 6 3 7 14 21 15 12 25 36 43 45 45 40 34 33 24 26 30 33 36 38 38 38 41 41 44 46 47 47 47 48 49 51
5 8 16 14 10 8 11 6 1 12 1 5 5 9 14 11 16 22 29 26 34 31 28 28 28 27 26 25 24 28 31 34 30 32 35 39 40 41 42 39 36 32 32 31
6 6 7 11 10 21 8 15 11 5 8 14 17 18 19 21 29 28 36 31 27 26 23 24 26 25 24 19 18 25 29 28 31 31 30 33 35 33 29 34 30 25 30 32
6 10 5 9 8 14 14 19 31 25 23 27 23 28 24 29 30 29 27 20 19 18 19 22 23 20 19 19 17 21 25 26 24 19 19 20 22 23 26 26 22 18 38 43
8 12 8 12 17 22 32 39 32 28 28 27 24 29 28 33 32 30 23 19 18 16 16 16 18 18 13 12 12 12 12 11 12 12 12 13 16 18 21 21 22 24 29 34
11 7 8 15 19 25 33 34 40 34 30 33 29 27 32 28 31 24 19 19 19 19 19 19 20 24 24 20 18 15 12 8 7 11 12 12 15 15 18 21 23 26 30 32
20 19 12 13 15 16 22 19 18 27 31 30 23 34 25 21 17 18 23 25 26 25 25 26 25 25 25 21 18 16 14 11 8 7 7 7 9 12 15 16 18 21 23 26
Wind_Direction
189 194 208 212 218 227 232 233 237 246 214 217 224 235 241 198 204 205 194 193 199 206 204 205 208 210 211 213 211 211 213 214 212 212 212 211 214 209 215 223 226 220 229 234
172 220 207 201 203 218 226 236 235 248 258 264 231 246 244 202 208 206 198 198 204 203 204 205 207 210 213 215 215 214 212 213 213 213 213 214 214 215 221 221 221 222 227 232
201 189 198 197 203 212 223 226 222 242 332 232 266 262 224 214 219 210 213 209 206 204 202 205 207 210 213 216 218 217 214 214 213 214 213 213 216 223 226 227 224 224 229 237
222 209 191 200 212 206 224 222 236 242 251 247 212 265 226 213 208 209 212 209 210 208 210 208 208 213 215 219 220 221 221 219 218 215 215 214 217 222 228 232 233 231 231 238
202 200 192 208 207 202 222 200 212 232 240 257 226 250 244 199 215 214 214 214 214 211 210 209 209 215 216 219 222 222 223 224 222 220 220 222 224 229 235 235 235 234 238 242
205 206 193 201 209 200 191 186 163 196 233 241 238 231 249 216 210 218 218 219 218 214 214 215 217 216 221 221 223 226 226 226 226 227 226 227 229 231 233 235 234 234 239 241
205 193 197 194 184 197 195 174 179 216 217 238 223 228 242 238 214 218 210 217 218 213 213 216 217 215 221 222 228 228 228 226 227 228 230 230 231 233 236 237 236 235 236 234
195 208 192 188 202 184 200 199 206 213 230 237 194 235 234 224 230 229 231 223 218 215 215 216 219 222 229 232 231 230 231 229 228 229 231 232 233 235 237 238 239 237 236 239
202 216 191 177 188 183 185 210 210 244 128 249 224 246 261 234 219 215 217 216 213 213 215 218 220 224 232 235 235 233 232 232 231 230 232 234 234 234 236 237 236 238 238 239
189 204 198 192 180 197 190 174 180 213 227 233 212 240 239 194 206 215 213 212 217 218 219 222 222 221 230 235 238 239 236 236 234 232 231 235 237 236 236 237 235 234 235 234
275 238 145 170 201 185 183 192 203 205 223 226 243 239 209 215 209 205 212 217 216 216 221 222 223 227 230 230 233 239 239 235 236 236 235 235 238 238 237 237 237 234 234 233
33 250 212 205 192 209 200 192 197 204 196 226 269 248 260 228 221 222 221 220 222 218 224 228 226 227 222 224 226 236 239 240 237 235 236 235 237 240 239 237 237 235 234 232
360 233 197 212 210 202 219 212 203 218 236 213 212 195 234 243 232 212 229 245 238 238 235 229 228 221 226 230 228 231 235 238 241 237 235 236 237 239 240 239 238 237 234 234
309 26 256 219 213 28 218 216 212 219 228 225 226 236 227 277 241 258 256 259 252 238 231 233 235 237 241 236 234 234 236 235 236 237 236 234 235 238 239 239 237 237 236 235
11 353 333 307 303 301 267 258 236 232 238 233 241 238 232 254 279 290 290 283 271 263 244 236 232 237 241 239 236 237 239 234 231 234 237 239 240 237 239 240 237 236 234 234
358 307 325 300 293 285 277 256 252 247 245 253 257 260 287 260 241 248 261 279 274 277 262 252 249 250 243 241 239 237 236 235 233 235 238 240 240 239 237 237 236 235 235 233
317 290 248 252 312 312 272 245 244 245 238 236 242 249 251 248 236 247 252 247 255 264 271 260 245 251 256 258 251 239 238 235 235 235 240 240 242 242 240 236 233 232 231 231
243 221 222 267 250 242 255 310 264 261 254 233 245 252 249 248 248 239 253 251 257 259 263 265 269 271 267 263 252 247 238 238 239 239 238 240 242 244 242 238 236 233 230 229
217 225 222 228 227 278 294 252 254 248 256 284 265 250 242 251 258 254 244 248 252 257 261 262 267 273 271 260 255 243 235 237 240 242 243 243 243 244 244 242 239 236 232 230
207 222 236 191 241 238 237 245 264 235 267 193 334 287 268 258 249 253 254 253 255 255 258 262 259 265 254 246 250 242 236 235 238 241 245 246 247 245 245 248 245 241 238 236
164 205 219 227 246 256 270 280 11 215 185 326 291 294 294 273 261 263 274 266 263 263 255 253 248 252 255 251 241 237 233 234 243 248 249 250 251 252 252 248 247 245 247 245
214 197 200 224 243 241 250 263 243 338 316 311 309 305 293 281 279 273 269 272 273 268 245 235 233 244 246 241 235 229 229 235 239 245 252 254 255 253 241 243 247 258 262 257
246 224 224 222 225 258 282 292 293 296 296 300 303 300 298 294 279 277 277 274 252 234 231 228 225 223 225 230 228 227 228 230 237 245 250 251 249 248 243 248 232 233 249 239
261 261 245 251 250 262 271 281 280 284 291 296 294 288 291 283 279 272 263 235 227 212 202 190 187 184 177 184 188 192 205 215 223 236 241 242 241 238 234 225 230 236 235 238
248 249 255 273 267 270 271 268 272 284 274 279 289 281 286 279 273 255 222 208 188 173 164 158 145 133 124 120 119 117 119 135 187 205 208 207 220 225 229 226 221 222 224 230
234 238 225 247 263 271 271 287 292 279 270 264 270 283 273 254 233 192 172 162 153 146 142 134 123 118 116 116 114 115 115 115 129 150 163 180 200 210 217 227 226 225 236 245
Height
1473 1474 1469 1473 1478 1478 1480 1481 1479 1472 1473 1475 1475 1474 1471 1480 1482 1486 1492 1498 1502 1504 1510 1517 1521 1526 1530 1532 1535 1538 1542 1546 1551 1555 1558 1562 1564 1569 1571 1574 1577 1579 1581 1582
1471 1460 1463 1471 1477 1478 1479 1480 1476 1473 1474 1476 1472 1471 1470 1473 1473 1477 1484 1491 1494 1502 1508 1511 1516 1521 1523 1526 1529 1533 1537 1542 1546 1550 1554 1558 1562 1566 1569 1572 1574 1576 1578 1580
1449 1450 1461 1467 1472 1476 1474 1473 1474 1477 1474 1471 1472 1469 1469 1469 1472 1477 1480 1485 1492 1494 1498 1504 1509 1512 1517 1520 1523 1527 1532 1537 1541 1546 1551 1554 1559 1561 1564 1567 1570 1573 1576 1578
1451 1451 1454 1459 1462 1468 1472 1470 1474 1478 1482 1485 1469 1477 1468 1463 1466 1470 1475 1479 1481 1486 1493 1498 1502 1506 1509 1512 1518 1523 1528 1532 1537 1542 1545 1548 1551 1554 1558 1562 1566 1569 1572 1575
1436 1442 1450 1455 1449 1460 1463 1467 1472 1474 1476 1477 1472 1480 1454 1462 1464 1462 1465 1468 1474 1478 1484 1489 1492 1495 1499 1507 1511 1516 1522 1527 1532 1536 1540 1544 1548 1551 1555 1559 1562 1565 1567 1570
1428 1436 1441 1442 1448 1454 1459 1466 1471 1476 1474 1484 1466 1473 1450 1453 1452 1450 1456 1461 1466 1473 1477 1481 1485 1491 1497 1502 1506 1510 1514 1520 1525 1530 1535 1539 1543 1547 1550 1553 1556 1559 1561 1564
1428 1432 1432 1436 1446 1452 1455 1461 1482 1491 1485 1468 1452 1468 1445 1436 1439 1438 1443 1449 1454 1460 1469 1474 1479 1482 1486 1491 1496 1501 1506 1511 1517 1522 1527 1532 1536 1541 1544 1548 1552 1555 1556 1559
1425 1441 1423 1422 1427 1440 1447 1450 1457 1477 1463 1460 1457 1452 1433 1428 1433 1433 1437 1439 1446 1455 1460 1465 1469 1473 1477 1481 1486 1491 1497 1503 1509 1514 1519 1525 1530 1535 1538 1543 1547 1550 1552 1555
1413 1415 1408 1415 1420 1428 1443 1444 1437 1452 1465 1464 1439 1431 1426 1424 1423 1427 1429 1434 1439 1443 1448 1452 1456 1462 1467 1472 1477 1483 1487 1494 1500 1506 1512 1517 1522 1526 1531 1536 1540 1544 1548 1551
1403 1415 1403 1409 1416 1421 1426 1432 1455 1449 1466 1467 1439 1439 1422 1417 1418 1417 1421 1426 1429 1434 1439 1444 1448 1452 1457 1462 1468 1474 1480 1485 1491 1497 1503 1508 1513 1518 1523 1529 1533 1537 1541 1545
1410 1405 1412 1407 1406 1410 1426 1426 1428 1430 1436 1441 1443 1421 1404 1408 1405 1408 1410 1414 1419 1425 1429 1433 1437 1441 1445 1454 1458 1461 1468 1476 1482 1488 1494 1499 1504 1509 1515 1520 1525 1530 1534 1538
1418 1410 1405 1404 1396 1397 1403 1411 1418 1430 1441 1430 1424 1417 1397 1398 1400 1402 1403 1406 1411 1416 1419 1423 1429 1433 1440 1443 1449 1451 1457 1463 1470 1478 1484 1489 1495 1499 1504 1509 1515 1522 1525 1530
1420 1416 1410 1408 1402 1401 1401 1402 1408 1409 1410 1425 1435 1416 1393 1398 1400 1401 1403 1405 1409 1412 1417 1419 1425 1427 1429 1432 1436 1440 1446 1451 1458 1465 1472 1479 1483 1487 1492 1499 1505 1511 1517 1521
1424 1420 1408 1395 1398 1415 1415 1407 1401 1403 1410 1412 1408 1405 1398 1395 1398 1399 1401 1400 1402 1406 1409 1412 1417 1419 1421 1424 1426 1431 1436 1442 1448 1453 1459 1465 1471 1475 1480 1488 1495 1500 1506 1511
1428 1423 1422 1420 1420 1418 1418 1416 1412 1409 1399 1400 1397 1397 1400 1399 1397 1396 1396 1397 1399 1400 1403 1405 1409 1412 1414 1417 1419 1423 1427 1434 1440 1443 1449 1452 1457 1465 1471 1476 1482 1488 1493 1499
1434 1427 1428 1421 1416 1414 1413 1409 1408 1408 1406 1404 1398 1394 1394 1395 1399 1396 1397 1396 1396 1396 1396 1399 1403 1405 1407 1408 1410 1414 1419 1423 1429 1434 1437 1442 1448 1452 1458 1464 1470 1477 1482 1488
1438 1432 1429 1423 1417 1413 1407 1391 1397 1397 1397 1398 1397 1391 1390 1391 1394 1395 1394 1394 1391 1391 1392 1394 1396 1398 1400 1402 1402 1405 1408 1416 1420 1425 1431 1435 1439 1442 1445 1451 1458 1463 1468 1476
1438 1437 1431 1422 1423 1423 1379 1381 1387 1387 1382 1383 1382 1383 1384 1384 1384 1386 1387 1388 1387 1386 1387 1389 1390 1391 1393 1394 1396 1397 1403 1407 1412 1418 1425 1429 1432 1433 1437 1442 1446 1451 1456 1461
1437 1435 1428 1422 1413 1395 1387 1385 1385 1387 1380 1380 1376 1376 1377 1379 1379 1376 1381 1381 1380 1380 1380 1381 1383 1384 1384 1386 1388 1391 1395 1400 1406 1410 1414 1417 1421 1425 1429 1432 1435 1439 1445 1449
1432 1436 1431 1422 1415 1402 1378 1380 1379 1389 1386 1377 1381 1378 1375 1375 1373 1372 1371 1370 1369 1370 1372 1373 1374 1375 1375 1377 1379 1382 1387 1392 1396 1400 1402 1408 1413 1417 1419 1421 1426 1431 1435 1439
1431 1433 1428 1424 1414 1392 1385 1384 1385 1389 1379 1376 1378 1378 1377 1375 1369 1368 1363 1363 1361 1363 1363 1365 1367 1369 1369 1369 1372 1375 1380 1384 1387 1394 1399 1402 1406 1410 1416 1424 1430 1434 1442 1448
1417 1421 1421 1424 1416 1407 1386 1383 1386 1377 1372 1374 1373 1374 1372 1371 1364 1363 1358 1357 1360 1357 1355 1356 1360 1362 1363 1364 1367 1369 1372 1378 1384 1388 1392 1396 1400 1404 1409 1414 1420 1428 1438 1443
1419 1410 1408 1404 1391 1391 1387 1387 1379 1381 1379 1373 1373 1367 1369 1363 1358 1356 1354 1354 1353 1352 1350 1351 1354 1356 1358 1361 1363 1365 1368 1373 1378 1383 1387 1390 1394 1398 1403 1405 1408 1407 1419 1438
1410 1410 1405 1401 1391 1388 1388 1381 1383 1383 1378 1372 1370 1365 1364 1358 1351 1349 1350 1351 1350 1348 1347 1348 1351 1352 1355 1358 1360 1363 1367 1370 1375 1380 1383 1386 1390 1393 1395 1398 1400 1404 1410 1414
1407 1406 1400 1393 1390 1389 1383 1383 1379 1378 1376 1369 1364 1361 1354 1351 1343 1343 1344 1345 1345 1345 1345 1348 1351 1351 1352 1356 1358 1361 1364 1368 1371 1376 1379 1380 1383 1386 1390 1393 1396 1399 1402 1404
1400 1395 1392 1374 1379 1382 1377 1376 1374 1372 1368 1365 1360 1355 1349 1344 1340 1340 1341 1340 1342 1344 1346 1347 1352 1353 1353 1356 1359 1362 1364 1367 1370 1373 1374 1376 1378 1380 1383 1385 1389 1393 1395 1397